Regional Weather Roundup
Issued by NWS Sterling, VA

Home | Current Version | Previous Version | Graphics & Text | Print | Product List | Glossary On
Versions: 1 2 3 4 5 6 7 8 9 10 11 12 13 14 15 16 17 18 19 20 21 22 23 24 25 26 27 28 29 30 31 32 33 34 35 36 37 38 39 40 41 42 43 44 45 46 47 48 49 50
546
ASUS41 KLWX 031910
RWRLWX

REGIONAL WEATHER ROUNDUP
NATIONAL WEATHER SERVICE BALTIMORE MD/WASHINGTON DC
200 PM EST SAT DEC 03 2016

Note: "FAIR" indicates few or no clouds below 12,000 feet
with no significant weather and/or obstructions to visibility.
 TC=TEMPERATURE CELSIUS

 * =Non NWS site. Station does not report precipitation (e.g. rain,
    snow, etc.), thunder, or fog.

DCZ001-MDZ009-015-VAZ040>042-051-053>054-032000-
WASHINGTON METRO

CITY           SKY/WX    TMP DP  RH WIND       PRES   REMARKS
WASHINGTON NAT PTSUNNY   50  29  44 W17G26    30.19F
DULLES         MOSUNNY   46  27  47 NW18G25   30.19F
ANDREWS AFB    MOSUNNY   47  28  47 NW17      30.16F
FT BELVOIR     SUNNY     49  28  43 NW16      30.19S
QUANTICO       SUNNY     51  28  41 N14G24    30.21F
COLLEGE PARK*  MOSUNNY   46  28  49 W14G23    30.17F
LEESBURG*      CLOUDY    46  32  57 N13G20    30.21S
MANASSAS*      SUNNY     48  28  46 N10G23    30.20F
GAITHERSBURG*  MOSUNNY   45  27  49 NW15G21   30.20F

$$

MDZ006>007-011-014-032000-
BALTIMORE METRO

CITY           SKY/WX    TMP DP  RH WIND       PRES   REMARKS
BWI AIRPORT    PTSUNNY   50  30  46 NW16G23   30.15F
MD SCIENCE CTR   N/A     50  28  42 MISG      30.17F
MARTIN STATE   PTSUNNY   52  34  50 NW18      30.16F
ANNAPOLIS      MOSUNNY   51  31  46 NW14      30.15F
FORT MEADE*    SUNNY     48  30  49 NW14G26   30.19S

$$

MDZ012-015-019>023-032000-
MARYLAND EASTERN SHORE

CITY           SKY/WX    TMP DP  RH WIND       PRES   REMARKS
OCEAN CITY     SUNNY     51  30  44 NW17G28   30.11F
SALISBURY      MOSUNNY   52  30  43 NW18G28   30.12F
BAY BRIDGE AP* PTSUNNY   50  32  50 NW17G23   30.15F
CAMBRIDGE*     SUNNY     50  30  46 NW13G22   30.14F
EASTON*        SUNNY     52  28  40 NW18G25   30.17F

$$

MDZ017>025-032000-
SOUTHERN MARYLAND

CITY           SKY/WX    TMP DP  RH WIND       PRES   REMARKS
PATUXENT RIVER MOSUNNY   50  29  44 NW18      30.16F
ST INIGOES     SUNNY     52  30  43 NW8       30.15F
LEONARDTOWN*   SUNNY     50  28  43 N7G16     30.18S

$$

MDZ003>005-032000-
NORTH CENTRAL MARYLAND

CITY           SKY/WX    TMP DP  RH WIND       PRES   REMARKS
FREDERICK*     PTSUNNY   46  32  57 W17       30.22F
HAGERSTOWN APT MOSUNNY   46  28  49 NW20      30.17F
WESTMINSTER*   CLOUDY    45  28  53 NW12      30.15S

$$

MDZ501>502-032000-
WESTERN MARYLAND

CITY           SKY/WX    TMP DP  RH WIND       PRES   REMARKS
OAKLAND*       CLOUDY    27  27 100 W8        30.17R WCI  18
CUMBERLAND*    NOT AVBL

$$

VAZ025>031-032000-
SHENANDOAH VALLEY

CITY           SKY/WX    TMP DP  RH WIND       PRES   REMARKS
WINCHESTER*    PTSUNNY   43  28  56 NW14      30.20S
FRONT ROYAL*   FAIR      46  30  53 N8        30.18S
LURAY*         FAIR      48  32  53 NW8       30.18S
NEW MARKET*    FAIR      47  28  46 SW5       30.18S
STAUNTON*      SUNNY     45  29  52 W7        30.22R
WAYNESBORO*    FAIR      45  26  47 NW7       30.19S

$$

WVZ021-048>050-054>055-032000-
EASTERN WEST VIRGINIA PANHANDLE

CITY           SKY/WX    TMP DP  RH WIND       PRES   REMARKS
MARTINSBURG    CLOUDY    43  28  55 W14       30.20F
PETERSBURG*    PTSUNNY   44  29  56 N8        30.24F

$$

VAZ036>039-050-032000-
CENTRAL FOOTHILLS

CITY           SKY/WX    TMP DP  RH WIND       PRES   REMARKS
CHARLOTTESVILL SUNNY     51  28  41 NW5       30.19S
CULPEPER*      SUNNY     51  30  44 N8        30.19S
ORANGE*          N/A     52  30  43 CALM      30.20S
GORDONSVILLE*  FAIR      50  28  43 W5        30.18S
WARRENTON*     FAIR      53  22  30 N12       30.19S

$$

VAZ055>057-032000-
NORTH AND CENTRAL PIEDMONT

CITY           SKY/WX    TMP DP  RH WIND       PRES   REMARKS
FREDERICKSBRG* SUNNY     51  32  47 NW6       30.18S
STAFFORD*      SUNNY     49  30  46 NW8       30.23S

$$

NCZ024-NYZ072-PAZ021-071-VAZ022-071-032000-
OTHER REGIONAL OBSERVATIONS

CITY           SKY/WX    TMP DP  RH WIND       PRES   REMARKS
NEW YORK CITY  MOSUNNY   47  24  40 NW14G26   30.04F
PHILADELPHIA   PTSUNNY   51  28  41 NW17      30.08F
PITTSBURGH     CLOUDY    38  30  73 W8        30.24S
ROANOKE        CLOUDY    44  26  49 W8        30.26R
RICHMOND       PTSUNNY   51  28  41 NW10      30.19F
RALEIGH        PTSUNNY   52  25  35 VRB3      30.22F

$$

ANZ530>537-032000-
MARINE OBSERVATIONS

STATION/POSITION TIME  TEMP    WIND        PRES
                       AIR SEA DIR/SP/G
                 (UTC) (F)     (DEG/KT/KT) (MB)
THOMAS PT LIGHT  1900   48 50  330/ 17/ 20   N/A
BALT KEY BRIDGE  1842   48     300/ 17/ 22 1020.7F
COVE POINT       1836   48     350/ 19/ 22 1021.5F
LEWISETTA        1836   49 50  330/ 10/ 16 1021.3F
SOLOMONS ISLAND  1836   49 52  300/  8/ 15   N/A
PINEY POINT      1848          320/ 16/ 18   N/A

$$





USA.gov is the U.S. government's official web portal to all federal, state and local government web resources and services.